This is the latest recevied weather packets stored in our database for station/object CE1RLP-34. If no packets are shown the sender has not sent any weather packets the latest 10 day(s).
| Time | Temp. | Humidity | Pressure | Rain* | Wind** | Luminosity | Snow |
|---|---|---|---|---|---|---|---|
| 1777732502 | 27.78° C | 3% | 1084.6 hPa | - | - | - | - |
| 1777731600 | 26.67° C | 2% | 1084.6 hPa | - | - | - | - |
| 1777730700 | 25.56° C | 1% | 1084.5 hPa | - | - | - | - |
| 1777729797 | 25° C | 1% | 1084.4 hPa | - | - | - | - |
| 1777728897 | 23.89° C | 1% | 1084.3 hPa | - | - | - | - |
| 1777727995 | 22.78° C | 1% | 1084.4 hPa | - | - | - | - |
| 1777727095 | 21.11° C | 2% | 1084.2 hPa | - | - | - | - |
| 1777726194 | 20° C | 2% | 1084 hPa | - | - | - | - |
| 1777725293 | 18.33° C | 2% | 1084 hPa | - | - | - | - |
| 1777724396 | 16.67° C | 2% | 1083.8 hPa | - | - | - | - |
| 1777722617 | 13.89° C | 3% | 1083.7 hPa | - | - | - | - |
| 1777721717 | 12.78° C | 3% | 1083.5 hPa | - | - | - | - |
| 1777720814 | 12.22° C | 3% | 1083.4 hPa | - | - | - | - |
| 1777719914 | 12.22° C | 3% | 1083.3 hPa | - | - | - | - |
| 1777719012 | 12.22° C | 2% | 1083.2 hPa | - | - | - | - |
| 1777718112 | 12.22° C | 2% | 1083.1 hPa | - | - | - | - |
| 1777717212 | 12.78° C | 3% | 1082.9 hPa | - | - | - | - |
| 1777716309 | 12.78° C | 2% | 1082.8 hPa | - | - | - | - |
| 1777715407 | 12.78° C | 2% | 1082.8 hPa | - | - | - | - |
| 1777714507 | 12.78° C | 2% | 1082.7 hPa | - | - | - | - |
| 1777713604 | 13.33° C | 2% | 1082.7 hPa | - | - | - | - |
| 1777712704 | 13.33° C | 2% | 1082.7 hPa | - | - | - | - |
| 1777711802 | 13.33° C | 2% | 1082.7 hPa | - | - | - | - |
| 1777710902 | 13.33° C | 2% | 1082.7 hPa | - | - | - | - |
| 1777709999 | 13.33° C | 2% | 1082.7 hPa | - | - | - | - |
* Rain since midnight (hover to see other rain measurements)
** Current wind speed in m/s (hover to see current wind gust speed)